Find Weina-1 01 weixing

NORAD ID: 43169 Int'l Des: 2018-011 Owner: WEINA Country: CN operational
LEOCIRCULAR

Live Position

Loading 3D Globe...

About Weina-1 01 weixing

Description loading...

Upcoming Passes

Passes for default location (London). Set your location on the main map for personalized predictions.

Altitude History

Loading altitude history...

Two-Line Element Set

1 43169U 18011A 26103.93636687 .00001468 00000-0 11573-3 0 9993
2 43169 34.9948 192.3761 0002840 212.8145 147.2387 15.00733170448463
Epoch: Apr 13, 2026 • Age: 9 hours

Current Status

Altitude 571.3 km
Velocity 7.58 km/s
Sub-Earth Point -28.94°S, 178.76°E
Launch Date Jan 25, 2018
Age 8.2 years
Type other

Technical Details

Classification Payload
Mass 5.00 kg
Dry Mass 5.00 kg
Total Mass 5.00 kg
Length 0.20 m
Diameter 0.10 m
Span 0.20 m
Shape Box
Manufacturer SECM
Phase Status In Orbit
Owner/State WEINA/CN

Most Searched